[[{"header":{"parameterUnit":"m.s-1","parameterCategory":1,"la1":30.2991,"la2":30.254,"lo1":-89.0895,"lo2":-89.0444,"dy":0.0017,"dx":0.0017,"nx":28,"ny":28,"refTime":"2024-05-24T21:00:00:Z","depth":0,"parameterNumber":2,"parameterNumberName":"U-component_of_WINDS"},"data":[0,0,0,0,0,0,0,0,0,0,0,0,0,0,0,0,0,0,0,0,0,0,0,0,0,0,0,0,0,0,0,0,0,0,0,0,0,0,0,0,0,0,0,0,0,0,0,0,0,0,0,0,0,0,0,0,0,0,1.1139,1.114,0,1.1165,1.1165,1.1165,1.1149,1.1148,1.1147,1.1146,1.1171,1.1172,1.1174,0,0,0,0,0,0,0,0,0,0,0,0,0,1.1075,1.1076,1.1139,1.114,1.114,1.1165,1.1165,1.1165,1.1149,1.1148,1.1147,1.1146,1.1171,1.1172,1.1174,0,0,0,0,0,0,0,0,0,0,0,0,0,1.1102,1.1077,1.1139,1.1135,1.1135,1.1164,1.1165,1.1165,1.1149,1.1148,1.1147,1.1146,1.117,1.1172,1.1174,1.121,0,0,1.118,1.1181,0,0,0,0,0,0,0,0,1.11,1.1104,1.1135,1.1135,1.1135,1.1152,1.1151,1.118,1.1149,1.1143,1.1146,1.1145,1.1166,1.1168,1.1175,1.1211,1.1212,1.1181,1.1182,1.1183,1.1183,0,0,0,0,0,0,0,1.1099,1.1103,1.1149,1.1136,1.1135,1.1131,1.1133,1.1157,1.1161,1.1144,1.1143,1.1146,1.1165,1.1173,1.1176,1.1212,1.1181,1.1182,1.1184,1.1184,1.1277,1.1278,0,0,0,0,0,0,1.1097,1.1102,1.1148,1.115,1.1115,1.1133,1.1136,1.1148,1.116,1.1161,1.1147,1.1145,1.117,1.1173,1.1176,1.1218,1.1183,1.1185,1.1186,1.1276,1.1278,1.1279,0,0,0,0,0,0,1.1096,1.1102,1.1147,1.1126,1.1131,1.1135,1.1149,1.1149,1.1157,1.1163,1.1163,1.1154,1.117,1.1174,1.1201,1.1219,1.1186,1.1187,1.1275,1.1277,1.1278,1.1303,0,0,0,0,0,0,1.1094,1.1101,1.1115,1.1126,1.1132,1.1173,1.115,1.115,1.1161,1.1158,1.117,1.1171,1.1169,1.1198,1.1203,1.1221,1.1189,1.1273,1.1275,1.1278,1.13,1.1305,1.1309,0,0,0,0,0,1.1092,1.1121,1.1116,1.1122,1.115,1.1174,1.1177,1.1175,1.1162,1.1176,1.1179,1.117,1.1216,1.1201,1.1207,1.1226,1.1272,1.1275,1.1277,1.1298,1.1304,1.1309,0,0,0,0,0,0,1.1112,1.1122,1.1117,1.1151,1.1161,1.1171,1.1188,1.1181,1.1196,1.1193,1.119,1.1192,1.1221,1.1226,1.1209,1.126,1.1242,1.1246,1.1256,1.1262,1.1266,1.1264,1.1191,0,0,0,0,0,1.112,1.1139,1.1147,1.1176,1.1182,1.1184,1.1194,1.1192,1.1203,1.1207,1.1213,1.1223,1.124,1.1251,1.1267,1.1301,1.1303,1.1316,1.1321,1.1325,1.1328,1.1346,1.1352,1.1288,1.1288,1.1288,0,0,1.1138,1.1146,1.1158,1.118,1.1188,1.1207,1.1188,1.1209,1.1223,1.121,1.1237,1.1241,1.1252,1.1283,1.1297,1.1288,1.1346,1.1328,1.1331,1.1332,1.1349,1.1355,1.1361,1.129,1.129,1.1289,0,0,1.1179,1.1187,1.1212,1.122,1.1233,1.1234,1.124,1.1251,1.1253,1.128,1.127,1.1286,1.1316,1.1324,1.1332,1.1376,1.1368,1.1381,1.1405,1.1422,1.1427,1.1431,1.1446,1.1452,1.1385,1.1385,1.1385,0,1.1199,1.1228,1.1225,1.1247,1.1257,1.1246,1.1271,1.1279,1.1296,1.1302,1.1292,1.1328,1.1335,1.1368,1.1378,1.1385,1.1392,1.138,1.1426,1.1431,1.1435,1.1449,1.1455,1.1386,1.1386,1.1386,1.1386,0,1.1251,1.1271,1.129,1.1306,1.1318,1.1341,1.1342,1.1354,1.135,1.1352,1.1379,1.1387,1.1404,1.1412,1.1408,1.1443,1.1437,1.1427,1.1408,1.1442,1.1456,1.1461,1.1388,1.1388,1.1387,1.1387,0,0,1.1306,1.1321,1.1328,1.1335,1.1348,1.1363,1.1385,1.1402,1.1412,1.1424,1.1442,1.1467,1.1457,1.1466,1.1463,1.1479,1.1512,1.1466,1.1466,1.1474,1.1551,1.1558,1.1565,1.1507,1.1508,1.1509,1.155,0,1.1348,1.1387,1.1385,1.1422,1.144,1.1429,1.1449,1.1458,1.1461,1.1476,1.1478,1.1496,1.1482,1.1487,1.1502,1.1505,1.1527,1.1502,1.1523,1.1524,1.152,1.1572,1.158,1.1618,1.1555,1.1556,1.1556,0,1.1402,1.1416,1.1454,1.1463,1.1471,1.1488,1.1503,1.1518,1.1528,1.1529,1.1539,1.1534,1.1555,1.1537,1.1566,1.1549,1.1557,1.156,1.1561,1.1563,1.1542,1.1574,1.163,1.1636,1.1565,1.1564,1.1563,0,1.1437,1.1465,1.1492,1.1498,1.151,1.1523,1.1528,1.1537,1.1547,1.156,1.1567,1.1582,1.159,1.1602,1.16,1.1587,1.163,1.1611,1.1631,1.1631,1.164,1.1639,1.1698,1.1646,1.1646,1.1646,1.1646,0,1.1484,1.1507,1.1508,1.1524,1.155,1.1547,1.1573,1.1577,1.1585,1.1601,1.1594,1.1609,1.1606,1.1622,1.1621,1.1645,1.1649,1.1649,1.1649,1.165,1.165,1.1655,1.1652,1.1647,1.1647,1.1647,1.1647,0,1.1527,1.1529,1.1557,1.1566,1.1569,1.1587,1.1595,1.161,1.1611,1.1632,1.1637,1.1639,1.1657,1.1657,1.1677,1.1676,1.1705,1.1702,1.1702,1.1701,1.172,1.1718,1.1784,1.1792,1.1736,1.1736,1.1737,0,1.1557,1.1575,1.1586,1.1596,1.1603,1.162,1.163,1.1628,1.1639,1.1652,1.1665,1.1682,1.1695,1.1723,1.1726,1.1741,1.1738,1.176,1.174,1.174,1.1738,1.1736,1.1738,1.1764,1.1764,1.1765,1.1765,0,1.1609,1.1608,1.1624,1.1639,1.1652,1.1664,1.1675,1.1683,1.1682,1.1695,1.1713,1.1723,1.1743,1.176,1.1774,1.1779,1.1772,1.1771,1.1776,1.1778,1.1777,1.1777,1.1712,1.177,1.1769,1.1769,1.1769,1.1768,1.1646,1.1661,1.1671,1.1688,1.1696,1.1707,1.1721,1.1725,1.174,1.1756,1.1754,1.1774,1.1783,1.1801,1.1807,1.1822,1.1815,1.1822,1.1824,1.1826,1.1828,1.1775,1.1825,1.1825,1.1825,1.1825,1.1825,0,1.1697,1.1703,1.1718,1.1734,1.1747,1.174,1.1751,1.1763,1.178,1.179,1.1803,1.1823,1.1839,1.1844,1.1859,1.187,1.1867,1.1874,1.1873,1.1874,1.1834,1.1828,1.1876,1.1876,1.1876,1.1876,1.1876,1.1876,1.1725,1.175,1.1751,1.178,1.1785,1.1805,1.1812,1.1821,1.1829,1.1852,1.1865,1.1868,1.1875,1.1891,1.1905,1.1905,1.1911,1.1919,1.1919,1.1882,1.1877,1.1872,1.1866,1.1921,1.1921,1.1957,1.1957,1.1958]},{"header":{"parameterUnit":"m.s-1","parameterCategory":1,"la1":30.2991,"la2":30.254,"lo1":-89.0895,"lo2":-89.0444,"dy":0.0017,"dx":0.0017,"nx":28,"ny":28,"refTime":"2024-05-24T21:00:00:Z","depth":0,"parameterNumber":3,"parameterNumberName":"V-component_of_WINDS"},"data":[0,0,0,0,0,0,0,0,0,0,0,0,0,0,0,0,0,0,0,0,0,0,0,0,0,0,0,0,0,0,0,0,0,0,0,0,0,0,0,0,0,0,0,0,0,0,0,0,0,0,0,0,0,0,0,0,0,0,2.1984,2.1984,0,2.2052,2.2053,2.2054,2.2059,2.2058,2.2058,2.2057,2.2126,2.2128,2.2131,0,0,0,0,0,0,0,0,0,0,0,0,0,2.1856,2.1858,2.1984,2.1985,2.1985,2.2052,2.2053,2.2054,2.2059,2.2058,2.2057,2.2057,2.2125,2.2128,2.2131,0,0,0,0,0,0,0,0,0,0,0,0,0,2.1917,2.1859,2.1984,2.1996,2.1998,2.2052,2.2053,2.2054,2.2059,2.2058,2.2057,2.2056,2.2124,2.2128,2.2131,2.2177,0,0,2.2143,2.2144,0,0,0,0,0,0,0,0,2.1913,2.1921,2.1993,2.1995,2.1998,2.2046,2.2033,2.2095,2.206,2.2036,2.2057,2.2056,2.21,2.2106,2.2121,2.218,2.2183,2.2143,2.2145,2.2147,2.2148,0,0,0,0,0,0,0,2.1909,2.1918,2.2011,2.1994,2.1997,2.1998,2.2005,2.2045,2.2073,2.2038,2.2039,2.2047,2.2101,2.2117,2.2123,2.2184,2.2143,2.2146,2.2149,2.215,2.2284,2.2285,0,0,0,0,0,0,2.1903,2.1915,2.2009,2.2013,2.1952,2.2001,2.2009,2.2032,2.2073,2.2078,2.2048,2.2047,2.2111,2.2118,2.2125,2.2181,2.2147,2.2151,2.2153,2.2282,2.2284,2.2285,0,0,0,0,0,0,2.19,2.1911,2.2006,2.1964,2.1976,2.2004,2.2029,2.2033,2.205,2.208,2.2085,2.2059,2.2111,2.212,2.2164,2.2184,2.2152,2.2156,2.2281,2.2283,2.2285,2.2294,0,0,0,0,0,0,2.1896,2.191,2.1928,2.1964,2.1978,2.2044,2.2031,2.2036,2.2057,2.2056,2.2092,2.2097,2.2111,2.2158,2.2168,2.2188,2.2159,2.2279,2.2282,2.2284,2.2292,2.2296,2.2299,0,0,0,0,0,2.1892,2.1928,2.1929,2.194,2.2002,2.2045,2.2053,2.2068,2.2058,2.2076,2.2096,2.2096,2.218,2.2163,2.2173,2.2195,2.2278,2.2281,2.2284,2.229,2.2295,2.2299,0,0,0,0,0,0,2.1892,2.1933,2.1935,2.1983,2.2011,2.2046,2.207,2.2073,2.2103,2.2102,2.2118,2.2126,2.217,2.2187,2.2167,2.2241,2.2228,2.2233,2.2229,2.2234,2.2237,2.2233,2.2162,0,0,0,0,0,2.1898,2.1931,2.1964,2.2004,2.2018,2.2041,2.2061,2.207,2.2099,2.211,2.2133,2.2161,2.2193,2.2214,2.2246,2.2294,2.2302,2.2314,2.2318,2.2321,2.2325,2.2352,2.2358,2.2295,2.2295,2.2295,0,0,2.1911,2.1937,2.1956,2.2005,2.2027,2.206,2.2051,2.2086,2.2111,2.2116,2.2159,2.2176,2.2208,2.2255,2.2276,2.227,2.2344,2.2324,2.2326,2.2329,2.2355,2.2361,2.2367,2.2297,2.2296,2.2296,0,0,2.1951,2.1974,2.2009,2.2032,2.2066,2.2081,2.209,2.2125,2.2137,2.218,2.2185,2.2214,2.2269,2.2292,2.2311,2.2358,2.236,2.2368,2.2387,2.2413,2.2418,2.2422,2.244,2.2446,2.2372,2.2372,2.2372,0,2.1962,2.2012,2.2027,2.2063,2.2084,2.209,2.2126,2.2147,2.2189,2.2203,2.2196,2.2266,2.2288,2.234,2.2351,2.2366,2.2376,2.2364,2.2416,2.2421,2.2425,2.2442,2.2448,2.2373,2.2373,2.2373,2.2373,0,2.2024,2.2059,2.2084,2.2125,2.2149,2.2184,2.2204,2.2226,2.2233,2.2249,2.2293,2.232,2.2357,2.2369,2.2376,2.2422,2.2417,2.2413,2.2399,2.2432,2.2448,2.2454,2.2374,2.2374,2.2374,2.2373,0,0,2.2068,2.2116,2.2125,2.2144,2.2182,2.2209,2.2244,2.2281,2.2299,2.2328,2.2358,2.2405,2.2401,2.2422,2.2431,2.2454,2.249,2.2446,2.2447,2.2454,2.2542,2.2546,2.2553,2.2491,2.2492,2.2493,2.254,0,2.2112,2.2176,2.219,2.2245,2.2277,2.2283,2.2314,2.234,2.2355,2.2385,2.2401,2.2434,2.2426,2.2439,2.2462,2.2481,2.2508,2.2477,2.2519,2.252,2.2512,2.2561,2.2565,2.2608,2.2546,2.2547,2.2548,0,2.2173,2.2203,2.2262,2.2295,2.2309,2.2336,2.2371,2.2399,2.2428,2.2438,2.2461,2.2468,2.2504,2.2489,2.2539,2.2518,2.2536,2.2547,2.2549,2.2554,2.2537,2.2568,2.2622,2.2629,2.2558,2.2557,2.2556,0,2.2199,2.2254,2.2297,2.2312,2.2352,2.2371,2.2389,2.2417,2.2438,2.2468,2.2481,2.2515,2.2533,2.2559,2.2574,2.2561,2.2623,2.2609,2.2632,2.2632,2.2646,2.2645,2.2704,2.2656,2.2656,2.2656,2.2656,0,2.2248,2.2283,2.2309,2.2335,2.2375,2.239,2.2429,2.2446,2.2471,2.25,2.2506,2.2533,2.2552,2.2581,2.2593,2.2633,2.2641,2.265,2.2653,2.265,2.2649,2.2662,2.266,2.2658,2.2657,2.2657,2.2657,0,2.2284,2.2303,2.2349,2.2383,2.2392,2.242,2.2448,2.2473,2.2489,2.2525,2.2535,2.2559,2.2593,2.2611,2.2654,2.2662,2.2708,2.2708,2.2698,2.2699,2.2722,2.272,2.2792,2.2803,2.2747,2.2748,2.2748,0,2.2314,2.2342,2.2378,2.2398,2.2416,2.2448,2.247,2.2486,2.2508,2.2543,2.2564,2.2599,2.2628,2.2683,2.2704,2.2737,2.2739,2.2762,2.2744,2.274,2.274,2.2739,2.2741,2.2766,2.2766,2.2767,2.2767,0,2.2366,2.2373,2.2404,2.2439,2.2464,2.2492,2.2519,2.2534,2.2555,2.2579,2.2615,2.2637,2.2681,2.2716,2.2751,2.2768,2.2771,2.2772,2.278,2.2777,2.277,2.2775,2.2707,2.2771,2.2771,2.277,2.277,2.277,2.24,2.2425,2.2455,2.2489,2.2511,2.2536,2.2561,2.2579,2.261,2.2647,2.2655,2.2693,2.2721,2.2767,2.2786,2.2815,2.281,2.2821,2.2824,2.2826,2.2827,2.2765,2.2822,2.2822,2.2821,2.2821,2.2821,0,2.2453,2.2472,2.2503,2.2541,2.2567,2.2568,2.2598,2.262,2.2653,2.268,2.2708,2.2749,2.2783,2.2806,2.284,2.286,2.2862,2.2868,2.2867,2.2871,2.283,2.282,2.2866,2.2866,2.2866,2.2866,2.2866,2.2866,2.2483,2.2525,2.2536,2.2589,2.2607,2.2645,2.2662,2.2685,2.2706,2.2752,2.278,2.2795,2.282,2.2856,2.2887,2.2893,2.2905,2.2911,2.2917,2.2879,2.2874,2.287,2.2861,2.2914,2.2914,2.2956,2.2957,2.2957]}]]